Regional Weather Roundup
Issued by NWS Albany, NY

Home | Current Version | Previous Version | Graphics & Text | Print | Product List | Glossary On
Versions: 1 2 3 4 5 6 7 8 9 10 11 12 13 14 15 16 17 18 19 20 21 22 23 24 25 26 27 28 29 30 31 32 33 34 35 36 37 38 39 40 41 42 43 44 45 46 47 48 49 50
000
ASUS41 KALY 282310
RWRALY

NEW YORK STATE HOURLY WEATHER ROUNDUP
NATIONAL WEATHER SERVICE ALBANY NY
600 PM EST SUN DEC 28 2014

NOTE: "FAIR" INDICATES FEW OR NO CLOUDS BELOW 12,000 FEET WITH NO
SIGNIFICANT WEATHER AND/OR NO OBSTRUCTIONS TO VISIBILITY.

NYZ032-033-038>043-046>054-057>066-NYZ062>081-290000-
EAST


CITY           SKY/WX    TMP DP  RH WIND       PRES   REMARKS
ALBANY         CLOUDY    38  26  62 NW10G21   30.01R WCI  31
GLENS FALLS    CLOUDY    37  26  64 SW6       29.95R WCI  32
POUGHKEEPSIE   CLOUDY    46  31  55 W8        29.97R
NEWBURGH       MOCLDY    43  34  70 W7        29.98R
MONTGOMERY     CLOUDY    44  32  62 NW8       29.97R
WHITE PLAINS   CLOUDY    45  35  68 NW9       29.95R
ISLIP          CLOUDY    49  39  68 NW9       29.94R
NEW YORK CITY  CLOUDY    48  37  65 NW14      29.97R
CENTRAL PARK   CLOUDY    48  36  63 N12G17    30.00R
$$

NYZ005>009-017-018-044>046-055-056-290000-
CENTRAL


CITY           SKY/WX    TMP DP  RH WIND       PRES   REMARKS
FULTON         MOCLDY    35  26  69 SW8       30.03R WCI  29
SYRACUSE       CLOUDY    35  27  72 SW13      30.03R WCI  26
ROME           CLOUDY    34  27  75 W8        30.04R WCI  27
ELMIRA         CLOUDY    37  26  64 W7        30.03S WCI  32
BINGHAMTON     CLOUDY    32  27  81 NW5       29.99R WCI  27
MONTICELLO     CLOUDY    37  30  75 NW15G23   29.98R WCI  28
$$

NYZ026>034-041>043-290000-
NORTH


CITY           SKY/WX    TMP DP  RH WIND       PRES   REMARKS
WATERTOWN      CLOUDY    35  22  58 W6        30.01R WCI  30
FORT DRUM      NOT AVBL
MASSENA        MOCLDY    32  18  56 W9        29.99R WCI  24
SARANAC LAKE   CLOUDY    30  23  75 SW8       29.88R WCI  22
PLATTSBURGH    CLOUDY    38  24  57 W6        29.93R WCI  33
$$

NYZ001>004-010>016-019>021-290000-
WEST


CITY           SKY/WX    TMP DP  RH WIND       PRES   REMARKS
NIAGARA FALLS  CLOUDY    35  26  69 SW8       30.05R WCI  29
BUFFALO        CLOUDY    35  26  69 SW12      30.05R WCI  27
DUNKIRK        CLOUDY    36  25  64 SW6       30.08R WCI  31
JAMESTOWN      CLOUDY    30  23  74 W5        30.04R WCI  25
WELLSVILLE     CLOUDY    30  22  72 W12       30.02R WCI  20
ROCHESTER      CLOUDY    33  25  72 SW7       30.05R WCI  27
PENN YAN       CLOUDY    33  25  72 CALM      30.05R
$$

             KEY
       WCI = WIND CHILL INDEX
       VSB = VISIBILITY
       HX  = HEAT INDEX
$$


USA.gov is the U.S. government's official web portal to all federal, state and local government web resources and services.